Weather History for KRBG - July, 2013

Change the Weather History Date:

Saturday, July 13, 2013

  Actual Average Record
Temperature  
Mean Temperature 69 °F 70 °F  
Max Temperature 86 °F 84 °F 104 °F (1935)
Min Temperature 51 °F 56 °F 45 °F (1970)
Degree Days  
Heating Degree Days 0 0  
Month to date heating degree days 0 8  
Since 1 June heating degree days 35 91  
Since 1 July heating degree days 0 8  
Cooling Degree Days 4 5  
Month to date cooling degree days 118 59  
Year to date cooling degree days 263 129  
Since 1 June cooling degree days 229 109  
Growing Degree Days 18 (Base 50)    
Moisture  
Dew Point 43 °F    
Average Humidity 53    
Maximum Humidity 83    
Minimum Humidity 22    
Precipitation  
Precipitation 0.00 in 0.00 in 0.29 in (1957)
Month to date precipitation 0.00 0.22  
Year to date precipitation 7.88 18.98  
Sea Level Pressure  
Sea Level Pressure 30.04 in    
Wind  
Wind Speed 7 mph (North)    
Max Wind Speed 18 mph    
Max Gust Speed 22 mph    
Visibility 10 miles    
Events      
T = Trace of Precipitation, MM = Missing Value Source: NWS Daily Summary

Daily Weather History Graph

Daily Weather History Graph

Search for Another Location

Airport or City:

Trip Planner

Search our weather history database for the weather conditions in past years. The results will help you decide how hot, cold, wet, or windy it might be!

Date:

Astronomy

Jul. 13, 2013 Rise Set
Actual Time 5:45 AM PDT 8:52 PM PDT
Civil Twilight 5:11 AM PDT 9:26 PM PDT
Nautical Twilight 4:27 AM PDT 10:10 PM PDT
Astronomical Twilight 3:33 AM PDT 11:03 PM PDT
Moon 11:17 AM PDT (7/13) 11:24 PM PDT (7/13)
Length of Visible Light 16h 15m
Length of Day
15h 06m
Waxing Crescent, 26% of the Moon is Illuminated
Jul 13
Waxing Crescent
Jul 15
First Quarter
Jul 22
Full
Jul 29
Last Quarter
Aug 6
New

Hourly Weather History & Observations

Time (PDT) Temp. Dew Point Humidity Pressure Visibility Wind Dir Wind Speed Gust Speed Precip Events Conditions
12:53 AM 59.0 °F 45.0 °F 60% 30.07 in 10.0 mi NNE 3.5 mph - N/A   Clear
1:53 AM 57.0 °F 45.0 °F 64% 30.08 in 10.0 mi Calm Calm - N/A   Clear
2:53 AM 55.0 °F 45.0 °F 69% 30.08 in 10.0 mi Calm Calm - N/A   Clear
3:53 AM 53.1 °F 45.0 °F 74% 30.09 in 10.0 mi Calm Calm - N/A   Clear
4:53 AM 53.1 °F 45.0 °F 74% 30.09 in 10.0 mi Calm Calm - N/A   Clear
5:53 AM 51.1 °F 45.0 °F 80% 30.10 in 10.0 mi Calm Calm - N/A   Clear
6:53 AM 52.0 °F 46.0 °F 80% 30.11 in 10.0 mi Calm Calm - N/A   Clear
7:53 AM 57.0 °F 46.9 °F 69% 30.12 in 10.0 mi North 6.9 mph - N/A   Clear
8:53 AM 60.1 °F 46.9 °F 62% 30.11 in 10.0 mi North 8.1 mph - N/A   Clear
9:53 AM 64.0 °F 46.9 °F 54% 30.10 in 10.0 mi NNW 6.9 mph - N/A   Clear
10:53 AM 68.0 °F 46.9 °F 47% 30.08 in 10.0 mi North 8.1 mph - N/A   Clear
11:53 AM 73.0 °F 46.9 °F 39% 30.05 in 10.0 mi North 10.4 mph 18.4 mph N/A   Clear
12:53 PM 75.9 °F 46.9 °F 36% 30.04 in 10.0 mi North 10.4 mph 18.4 mph N/A   Clear
1:53 PM 79.0 °F 44.1 °F 29% 30.02 in 10.0 mi North 12.7 mph 18.4 mph N/A   Clear
2:53 PM 82.0 °F 42.1 °F 24% 30.00 in 10.0 mi North 12.7 mph 20.7 mph N/A   Clear
3:53 PM 84.0 °F 41.0 °F 22% 29.98 in 10.0 mi North 13.8 mph - N/A   Clear
4:53 PM 84.9 °F 43.0 °F 23% 29.97 in 10.0 mi North 11.5 mph 18.4 mph N/A   Clear
5:53 PM 84.0 °F 42.1 °F 23% 29.97 in 10.0 mi NNW 10.4 mph 19.6 mph N/A   Clear
6:53 PM 84.0 °F 41.0 °F 22% 29.97 in 10.0 mi North 13.8 mph 18.4 mph N/A   Clear
7:53 PM 82.0 °F 39.0 °F 22% 29.98 in 10.0 mi NNW 10.4 mph 17.3 mph N/A   Clear
8:53 PM 79.0 °F 37.0 °F 22% 29.99 in 10.0 mi North 6.9 mph - N/A   Clear
9:53 PM 75.9 °F 37.0 °F 24% 30.01 in 10.0 mi North 6.9 mph - N/A   Clear
10:53 PM 73.9 °F 39.0 °F 28% 30.02 in 10.0 mi NNW 6.9 mph - N/A   Clear
11:53 PM 69.1 °F 39.9 °F 35% 30.03 in 10.0 mi Calm Calm - N/A   Clear